Time,TemperatureF,DewpointF,PressureIn,WindDirection,WindDirectionDegrees,WindSpeedMPH,WindSpeedGustMPH,Humidity,HourlyPrecipIn,Conditions,Clouds,dailyrainin,SolarRadiationWatts/m^2,SoftwareType,DateUTC
2014-04-23 00:22:00,51.0,21.0,29.94,West,275,30.0,30.0,31,0.00,,,0.00,0.000000,,2014-04-23 07:22:00,
2014-04-23 00:33:00,51.0,21.0,29.94,West,275,30.0,30.0,31,0.00,,,0.00,0.000000,,2014-04-23 07:33:00,
2014-04-23 00:42:00,51.0,21.0,29.94,West,275,30.0,30.0,31,0.00,,,0.00,0.000000,,2014-04-23 07:42:00,
2014-04-23 00:52:00,51.0,21.0,29.94,West,275,30.0,30.0,31,0.00,,,0.00,0.000000,,2014-04-23 07:52:00,
2014-04-23 01:22:00,49.0,21.0,29.96,WNW,283,25.0,43.0,33,0.00,,,0.00,0.000000,,2014-04-23 08:22:00,
2014-04-23 01:32:00,49.0,21.0,29.96,WNW,283,25.0,43.0,33,0.00,,,0.00,0.000000,,2014-04-23 08:32:00,
2014-04-23 01:42:00,49.0,21.0,29.96,WNW,283,25.0,43.0,33,0.00,,,0.00,0.000000,,2014-04-23 08:42:00,
2014-04-23 01:52:00,49.0,21.0,29.96,WNW,283,25.0,43.0,33,0.00,,,0.00,0.000000,,2014-04-23 08:52:00,
2014-04-23 02:22:00,48.0,23.0,29.94,WNW,285,30.0,47.0,37,0.00,,,0.00,0.000000,,2014-04-23 09:22:00,
2014-04-23 02:33:00,48.0,23.0,29.94,WNW,285,30.0,47.0,37,0.00,,,0.00,0.000000,,2014-04-23 09:33:00,
2014-04-23 02:43:00,48.0,23.0,29.94,WNW,285,30.0,47.0,37,0.00,,,0.00,0.000000,,2014-04-23 09:43:00,
2014-04-23 02:53:00,48.0,23.0,29.94,WNW,285,30.0,47.0,37,0.00,,,0.00,0.000000,,2014-04-23 09:53:00,
2014-04-23 03:23:00,47.0,26.0,29.92,WNW,283,33.0,45.0,44,0.00,,,0.00,0.000000,,2014-04-23 10:23:00,
2014-04-23 03:33:00,47.0,26.0,29.92,WNW,283,33.0,45.0,44,0.00,,,0.00,0.000000,,2014-04-23 10:33:00,
2014-04-23 03:42:00,47.0,26.0,29.92,WNW,283,33.0,45.0,44,0.00,,,0.00,0.000000,,2014-04-23 10:42:00,
2014-04-23 03:53:00,47.0,26.0,29.92,WNW,283,33.0,45.0,44,0.00,,,0.00,0.000000,,2014-04-23 10:53:00,
2014-04-23 04:23:00,45.0,27.0,29.93,West,273,29.0,54.0,48,0.00,,,0.00,0.000000,,2014-04-23 11:23:00,
2014-04-23 04:33:00,45.0,27.0,29.93,West,273,29.0,54.0,48,0.00,,,0.00,0.000000,,2014-04-23 11:33:00,
2014-04-23 04:43:00,45.0,27.0,29.93,West,273,29.0,54.0,48,0.00,,,0.00,0.000000,,2014-04-23 11:43:00,
2014-04-23 04:52:00,45.0,27.0,29.93,West,273,29.0,54.0,48,0.00,,,0.00,0.000000,,2014-04-23 11:52:00,
2014-04-23 05:22:00,44.0,27.0,29.94,West,279,27.0,49.0,51,0.00,,,0.00,0.000000,,2014-04-23 12:22:00,
2014-04-23 05:32:00,44.0,27.0,29.94,West,279,27.0,49.0,51,0.00,,,0.00,0.000000,,2014-04-23 12:32:00,
2014-04-23 05:42:00,44.0,27.0,29.94,West,279,27.0,49.0,51,0.00,,,0.00,0.000000,,2014-04-23 12:42:00,